Regional Weather Roundup
Issued by NWS New Orleans/Baton Rouge, LA

Home | Current Version | Previous Version | Text Only | Print | Product List | Glossary On
Versions: 1 2 3 4 5 6 7 8 9 10 11 12 13 14 15 16 17 18 19 20 21 22 23 24 25 26 27
000
ASUS44 KLIX 050913
RWRLIX
NEW ORLEANS REGIONAL WEATHER ROUNDUP
NATIONAL WEATHER SERVICE NEW ORLEANS LA
300 AM CST MON DEC 05 2016

NOTE: "FAIR" INDICATES FEW OR NO CLOUDS BELOW 12,000 FEET WITH NO
      SIGNIFICANT WEATHER AND/OR OBSTRUCTIONS TO VISIBILITY.
      SKY/WX - SKY CONDITION AND SIGNIFICANT WEATHER.
      TMP - AIR TEMPERATURE.     DP    - DEWPOINT TEMPERATURE.
      RH  - RELATIVE HUMIDITY.   PRES  - PRESSURE.
      HI  - HEAT INDEX.          WCI   - WIND CHILL INDEX.

*  THESE STATIONS ARE NOT NWS OR FAA STATIONS AND ARE NOT UNDER
   NWS QUALITY CONTROL.

LAZ038-040-048-061>063-065>067-069-051000-
SOUTHEAST LOUISIANA

CITY           SKY/WX    TMP DP  RH WIND       PRES   REMARKS
N.O. AUDUBON   NOT AVBL
N.O. INTL ARPT CLOUDY    60  60 100 N7        29.92R
N.O. LAKEFRONT CLOUDY    61  60  97 N14       29.92R FOG
N.O. DOWNTOWN*   N/A     61  60  97 N6        29.93R FOG
RESERVE*       CLOUDY    58  56  94 N9        29.92F
SLIDELL        CLOUDY    59  58  96 N9        29.92R FOG
BATON ROUGE    CLOUDY    53  52  96 NE10      29.92S
BOOTHVILLE     CLEAR     65  65 100 SE9       29.86F
BELLE CHASSE   CLOUDY    62  62 100 N5        29.90R
BOGALUSA*      CLOUDY    57  54  88 N5        29.96R
GALLIANO*      CLOUDY    65  61  89 N7        29.89R
NEW ROADS*     CLOUDY    50  50  97 NE6       29.93F
GONZALES*      CLOUDY    56  56 100 NE3       29.91F FOG
HAMMOND*       CLOUDY    55  52  88 CALM      29.94R
HOUMA*         CLOUDY    62  61  99 N8        29.89S FOG
PORT FOURCHON* MOSUNNY   72  66  83 SE13G21   29.85S

$$

MSZ070-080>082-051000-
SOUTHERN MISSISSIPPI

CITY           SKY/WX    TMP DP  RH WIND       PRES   REMARKS
MCCOMB         CLOUDY    50  49  96 NE3       29.95R FOG
GULFPORT       FOG       61  61 100 NE8       29.91R VSB 1
BILOXI         CLOUDY    61  61 100 N7        29.91R FOG
PASCAGOULA     CLOUDY    63  60  90 N8        29.90S

$$

COASTAL OBSERVATIONS
LAKE AND NEARSHORE STATIONS

STATION/POSITION TIME  TEMP    WIND        PRES    WAVE
                       AIR SEA DIR/SP/G            HT/PER
                 (UTC) (F)     (DEG/KT/KT) (MB)    (FT/S)
PASCAGOULA       0848   63      20/  7/  9 1011.6
WAVELAND YACHT   0848   60 61   30/  8/  9 1013.2
GRAND ISLE       0848   69 68  130/  6/ 12 1010.9
SOUTHWEST PASS   0848          100/ 20/ 23   N/A
NEW CANAL        0848   60 62   20/ 11/ 13 1012.1
SHELL BEACH      0848   62 64   20/ 12/ 12 1012.2

OFFSHORE STATIONS

STATION/POSITION TIME  TEMP    WIND        PRES    WAVE
                       AIR SEA DIR/SP/G            HT/PER
                 (UTC) (F)     (DEG/KT/KT) (MB)    (FT/S)
64 S DAUPHIN ISL 0850   73 75  110/ 17/ 21 1011.0    6/ 8

$$





USA.gov is the U.S. government's official web portal to all federal, state and local government web resources and services.